Home > Weather > Nuuk > Past weeks

Flag for Greenland Weather for the Past 2 Weeks in Nuuk, Greenland

Now
37 °F

Scattered clouds.


Feels Like: 32 °F
Forecast: 30 / 39 °F
Wind: 7 mph from Northwest

Location: Godthaab / Nuuk

Current Time: May 3, 2016 at 3:24:47 PM

Latest Report: May 3, 2016 at 2:50 PM


Visibility: N/A

Pressure: 29.86 "Hg

Humidity: 60%

Dew Point: 25 °F

Location of NuukLocation

Historic Weather in Nuuk — Graph

°F

Nuuk Temperature Yesterday

Maximum temperature yesterday: 36 °F (at 4:50 PM)
Minimum temperature yesterday: 25 °F (at 3:50 AM)
Average temperature yesterday: 29 °F

High & Low Weather Summary for the Past Weeks

 TemperatureHumidityPressure
High61 °F (Apr 27, 2:50 PM)100% (Apr 19, 9:50 PM)30.36 "Hg (Apr 19, 9:50 PM)
Low23 °F (Apr 19, 9:50 PM)32% (Apr 21, 6:50 AM)29.50 "Hg (Apr 29, 5:50 PM)
Average37 °F74%30.05 "Hg
* Reported Apr 18 1:50 PM — May 3 1:50 PM, Nuuk, Weather by CustomWeather, © 2016

Note: Actual official high and low records may vary slightly from our data, if they occured in-between our weather recording intervals... More about our weather records

Advertising

Nuuk Weather History for the Previous 24 Hours

Scroll right to see more
 ConditionsComfort  
Time TempWeatherWind HumidityBarometerVisibility
1:50 PM
Tue, May 3
41 °FScattered clouds.5 mph49%29.86 "HgN/A
12:50 PM39 °FScattered clouds.6 mph52%29.86 "HgN/A
11:50 AM37 °FScattered clouds.7 mph60%29.89 "HgN/A
10:50 AM36 °FScattered clouds.7 mph65%29.89 "HgN/A
9:50 AM36 °FScattered clouds.6 mph60%29.89 "HgN/A
8:50 AM34 °FPassing clouds.6 mph70%29.89 "HgN/A
7:50 AM34 °FScattered clouds.No wind65%29.89 "HgN/A
6:50 AM30 °FScattered clouds.2 mph69%29.89 "HgN/A
5:50 AM28 °FScattered clouds.2 mph74%29.89 "HgN/A
4:50 AM28 °FChilly.3 mph74%29.89 "HgN/A
3:50 AM28 °FPassing clouds.No wind74%29.92 "HgN/A
2:50 AM28 °FChilly.2 mph69%29.92 "HgN/A
1:50 AM28 °FChilly.1 mph74%29.92 "HgN/A
12:50 AM28 °FChilly.3 mph69%29.92 "HgN/A
11:50 PM
Mon, May 2
30 °FChilly.6 mph64%29.92 "HgN/A
10:50 PM28 °FPassing clouds.7 mph86%29.95 "HgN/A
9:50 PM28 °FChilly.7 mph80%29.95 "HgN/A
8:50 PM30 °FChilly.7 mph69%29.95 "HgN/A
7:50 PM32 °FPassing clouds.8 mph64%29.95 "HgN/A
6:50 PM34 °FPassing clouds.8 mph60%29.95 "HgN/A
5:50 PM34 °FPassing clouds.7 mph60%29.95 "HgN/A
4:50 PM36 °FPassing clouds.7 mph56%29.95 "HgN/A
3:50 PM34 °FPassing clouds.7 mph60%29.95 "HgN/A
Weather by CustomWeather, © 2016

See weather overviewHow to use our weather pages